Location: Banff
(51.1667°N, 115.5667°W)
Time: 06:44:12
(UTC+00:00)

S-56A Canister/Altair - Pass Details

Date: 04 December 2020
Orbit: 633 x 2499 km, 38.9° (Epoch: 21 January)

Event Time Altitude Azimuth Distance (km) Brightness Sun altitude
Rises 07:07:43 0° 270° (W) 4,743 - -60.7°
Reaches altitude 10° 07:12:58 10° 250° (WSW) 3,314 - -60.9°
Maximum altitude 07:16:48 14° 221° (SW) 2,671 - -61.0°
Drops below altitude 10° 07:20:05 10° 190° (S) 2,708 - -61.0°
Sets 07:23:37 0° 165° (SSE) 3,371 - -61.1°
